Powrót do katalogu

STARLINK-6355

AktywnyŁącznośćVLEO
NORAD 57356·PAYLOAD·🇺🇸 United States

Wystrzelony Jul 16, 2023 z Cape Canaveral Space Force Station

Loading…

Następne Przeloty (najbliższe 24 godziny)

TLE

ŚwieżeSource: CelesTrak SupGP

Epoka: Sep 14, 2026, 22:15 UTC

1 57356C 23099AE  26257.92756944  .00025194  00000+0  91237-3 0  2579
2 57356  43.0012 253.1990 0000858 270.1409 247.6276 15.27571507    16

Śledź STARLINK-6355 w czasie rzeczywistym z AllMySat

Download on the App Store